contact:dominique.lefevre@mio.osupytheas.fr, maurice.libes@osupytheas.fr, didier.mallarino@osupytheas.fr
Project:EMSO http://www.emso-fr.org/EMSO-France
Depth: 2436.0 m
Title:EMSO Ligure Ouest : Data MII capteur CSTAR
DateTime,Latitude,Longitude,Instrument_Serial,Reference_Counts,Signal_Counts,Corrected_Signal_raw_counts,Calculated_Beam_c_inverse_meters,Internal_thermistor_counts
DateTime,Latitude,Longitude,Instrument_Serial,Reference_Counts,Signal_Counts,Corrected_Signal_raw_counts,Calculated_Beam_c_inverse_meters,Internal_thermistor_counts
2019-11-28T00:00:51,42.805,6.029,CST-1368DR,7273,10192,15300,0.082,551
2019-11-28T00:03:52,42.805,6.029,CST-1368DR,7273,10191,15300,0.082,551
2019-11-28T00:06:54,42.805,6.029,CST-1368DR,7273,10191,15299,0.082,551
2019-11-28T00:09:55,42.805,6.029,CST-1368DR,7273,10191,15299,0.082,551
2019-11-28T00:12:57,42.805,6.029,CST-1368DR,7273,10191,15299,0.082,551
2019-11-28T00:15:59,42.805,6.029,CST-1368DR,7273,10191,15299,0.082,551
2019-11-28T00:19:00,42.805,6.029,CST-1368DR,7273,10190,15298,0.082,551
2019-11-28T00:22:02,42.805,6.029,CST-1368DR,7273,10190,15298,0.082,551
2019-11-28T00:25:04,42.805,6.029,CST-1368DR,7273,10191,15299,0.082,551
2019-11-28T00:28:06,42.805,6.029,CST-1368DR,7273,10190,15298,0.082,551
2019-11-28T00:31:07,42.805,6.029,CST-1368DR,7273,10191,15299,0.082,551
2019-11-28T00:34:09,42.805,6.029,CST-1368DR,7273,10190,15298,0.082,551
2019-11-28T00:37:11,42.805,6.029,CST-1368DR,7273,10190,15297,0.083,551
2019-11-28T00:40:12,42.805,6.029,CST-1368DR,7273,10191,15299,0.082,551
2019-11-28T00:43:14,42.805,6.029,CST-1368DR,7273,10190,15297,0.083,551
2019-11-28T00:46:16,42.805,6.029,CST-1368DR,7273,10189,15296,0.083,551
2019-11-28T00:49:17,42.805,6.029,CST-1368DR,7273,10189,15297,0.083,550
2019-11-28T00:52:19,42.805,6.029,CST-1368DR,7273,10190,15298,0.082,551
2019-11-28T00:55:21,42.805,6.029,CST-1368DR,7273,10189,15297,0.083,551
2019-11-28T00:58:23,42.805,6.029,CST-1368DR,7273,10190,15297,0.083,551
2019-11-28T01:01:24,42.805,6.029,CST-1368DR,7273,10190,15298,0.082,551
2019-11-28T01:04:26,42.805,6.029,CST-1368DR,7273,10190,15298,0.082,551
2019-11-28T01:07:28,42.805,6.029,CST-1368DR,7273,10191,15299,0.082,551
2019-11-28T01:10:29,42.805,6.029,CST-1368DR,7273,10190,15298,0.082,551
2019-11-28T01:13:31,42.805,6.029,CST-1368DR,7273,10190,15298,0.082,551
2019-11-28T01:16:32,42.805,6.029,CST-1368DR,7273,10188,15295,0.083,551
2019-11-28T01:19:34,42.805,6.029,CST-1368DR,7273,10190,15298,0.082,551
2019-11-28T01:22:36,42.805,6.029,CST-1368DR,7273,10190,15297,0.083,551
2019-11-28T01:25:38,42.805,6.029,CST-1368DR,7273,10190,15297,0.083,551
2019-11-28T01:28:39,42.805,6.029,CST-1368DR,7273,10188,15295,0.083,551
2019-11-28T01:31:41,42.805,6.029,CST-1368DR,7273,10190,15297,0.083,551
2019-11-28T01:34:42,42.805,6.029,CST-1368DR,7273,10185,15290,0.084,551
2019-11-28T01:37:44,42.805,6.029,CST-1368DR,7273,10190,15297,0.083,551
2019-11-28T01:40:46,42.805,6.029,CST-1368DR,7273,10185,15291,0.084,551
2019-11-28T01:43:47,42.805,6.029,CST-1368DR,7273,10190,15298,0.082,551
2019-11-28T01:46:49,42.805,6.029,CST-1368DR,7273,10189,15297,0.083,551
2019-11-28T01:49:51,42.805,6.029,CST-1368DR,7273,10188,15295,0.083,551
2019-11-28T01:52:52,42.805,6.029,CST-1368DR,7273,10189,15296,0.083,550
2019-11-28T01:55:54,42.805,6.029,CST-1368DR,7273,10189,15296,0.083,551
2019-11-28T01:58:55,42.805,6.029,CST-1368DR,7272,10190,15299,0.082,551
2019-11-28T02:01:57,42.805,6.029,CST-1368DR,7273,10188,15295,0.083,551
2019-11-28T02:04:59,42.805,6.029,CST-1368DR,7272,10188,15297,0.083,551
2019-11-28T02:08:00,42.805,6.029,CST-1368DR,7272,10189,15298,0.082,551
2019-11-28T02:11:02,42.805,6.029,CST-1368DR,7273,10189,15296,0.083,551
2019-11-28T02:14:04,42.805,6.029,CST-1368DR,7272,10189,15299,0.082,551
2019-11-28T02:17:05,42.805,6.029,CST-1368DR,7272,10189,15298,0.082,551
2019-11-28T02:20:07,42.805,6.029,CST-1368DR,7273,10190,15297,0.083,551
2019-11-28T02:23:08,42.805,6.029,CST-1368DR,7272,10189,15298,0.082,551
2019-11-28T02:26:10,42.805,6.029,CST-1368DR,7272,10188,15297,0.083,551
2019-11-28T02:29:12,42.805,6.029,CST-1368DR,7272,10189,15298,0.082,551
2019-11-28T02:32:13,42.805,6.029,CST-1368DR,7272,10188,15297,0.083,551
2019-11-28T02:35:15,42.805,6.029,CST-1368DR,7272,10188,15297,0.083,550
2019-11-28T02:38:17,42.805,6.029,CST-1368DR,7272,10189,15298,0.082,551
2019-11-28T02:41:18,42.805,6.029,CST-1368DR,7272,10188,15297,0.083,551
2019-11-28T02:44:20,42.805,6.029,CST-1368DR,7272,10188,15296,0.083,551
2019-11-28T02:47:22,42.805,6.029,CST-1368DR,7272,10190,15299,0.082,551
2019-11-28T02:50:23,42.805,6.029,CST-1368DR,7272,10190,15299,0.082,550
2019-11-28T02:53:25,42.805,6.029,CST-1368DR,7272,10188,15297,0.083,551
2019-11-28T02:56:26,42.805,6.029,CST-1368DR,7272,10189,15298,0.082,551
2019-11-28T02:59:28,42.805,6.029,CST-1368DR,7272,10188,15297,0.083,551
2019-11-28T03:02:30,42.805,6.029,CST-1368DR,7272,10188,15297,0.083,551
2019-11-28T03:05:31,42.805,6.029,CST-1368DR,7272,10190,15299,0.082,551
2019-11-28T03:08:33,42.805,6.029,CST-1368DR,7272,10189,15298,0.082,551
2019-11-28T03:11:35,42.805,6.029,CST-1368DR,7272,10189,15298,0.082,551
2019-11-28T03:14:36,42.805,6.029,CST-1368DR,7272,10188,15297,0.083,551
2019-11-28T03:17:38,42.805,6.029,CST-1368DR,7272,10188,15297,0.083,550
2019-11-28T03:20:40,42.805,6.029,CST-1368DR,7272,10187,15296,0.083,551
2019-11-28T03:23:41,42.805,6.029,CST-1368DR,7272,10188,15297,0.083,551
2019-11-28T03:26:43,42.805,6.029,CST-1368DR,7272,10189,15298,0.082,551
2019-11-28T03:29:44,42.805,6.029,CST-1368DR,7272,10188,15297,0.083,551
2019-11-28T03:32:46,42.805,6.029,CST-1368DR,7272,10188,15296,0.083,551
2019-11-28T03:35:48,42.805,6.029,CST-1368DR,7272,10188,15296,0.083,551
2019-11-28T03:38:49,42.805,6.029,CST-1368DR,7272,10188,15297,0.083,551
2019-11-28T03:41:51,42.805,6.029,CST-1368DR,7272,10187,15296,0.083,551
2019-11-28T03:44:53,42.805,6.029,CST-1368DR,7272,10188,15297,0.083,551
2019-11-28T03:47:54,42.805,6.029,CST-1368DR,7272,10188,15296,0.083,551
2019-11-28T03:50:56,42.805,6.029,CST-1368DR,7272,10188,15297,0.083,550
2019-11-28T03:53:57,42.805,6.029,CST-1368DR,7272,10188,15296,0.083,551
2019-11-28T03:56:59,42.805,6.029,CST-1368DR,7272,10188,15296,0.083,551
2019-11-28T04:00:01,42.805,6.029,CST-1368DR,7272,10188,15297,0.083,551
2019-11-28T04:03:02,42.805,6.029,CST-1368DR,7272,10187,15295,0.083,551
2019-11-28T04:06:04,42.805,6.029,CST-1368DR,7272,10188,15297,0.083,551
2019-11-28T04:09:06,42.805,6.029,CST-1368DR,7272,10188,15296,0.083,550
2019-11-28T04:12:08,42.805,6.029,CST-1368DR,7272,10188,15297,0.083,551
2019-11-28T04:15:09,42.805,6.029,CST-1368DR,7272,10187,15295,0.083,551
2019-11-28T04:18:11,42.805,6.029,CST-1368DR,7272,10186,15293,0.084,551
2019-11-28T04:21:13,42.805,6.029,CST-1368DR,7272,10188,15296,0.083,550
2019-11-28T04:24:14,42.805,6.029,CST-1368DR,7272,10186,15293,0.084,551
2019-11-28T04:27:16,42.805,6.029,CST-1368DR,7272,10187,15295,0.083,551
2019-11-28T04:30:17,42.805,6.029,CST-1368DR,7272,10187,15296,0.083,551
2019-11-28T04:33:19,42.805,6.029,CST-1368DR,7272,10187,15296,0.083,551
2019-11-28T04:36:21,42.805,6.029,CST-1368DR,7272,10187,15295,0.083,551
2019-11-28T04:39:22,42.805,6.029,CST-1368DR,7272,10187,15296,0.083,551
2019-11-28T04:42:24,42.805,6.029,CST-1368DR,7272,10188,15296,0.083,551
2019-11-28T04:45:26,42.805,6.029,CST-1368DR,7272,10188,15296,0.083,551
2019-11-28T04:48:27,42.805,6.029,CST-1368DR,7272,10187,15295,0.083,551
2019-11-28T04:51:29,42.805,6.029,CST-1368DR,7272,10187,15296,0.083,551
2019-11-28T04:54:31,42.805,6.029,CST-1368DR,7272,10187,15295,0.083,551
2019-11-28T04:57:32,42.805,6.029,CST-1368DR,7272,10187,15295,0.083,551
2019-11-28T05:00:34,42.805,6.029,CST-1368DR,7272,10187,15294,0.083,551
2019-11-28T05:03:36,42.805,6.029,CST-1368DR,7272,10187,15296,0.083,551
2019-11-28T05:06:37,42.805,6.029,CST-1368DR,7272,10186,15293,0.084,551
2019-11-28T05:09:39,42.805,6.029,CST-1368DR,7272,10186,15294,0.083,551
2019-11-28T05:12:41,42.805,6.029,CST-1368DR,7272,10186,15293,0.084,551
2019-11-28T05:15:42,42.805,6.029,CST-1368DR,7272,10186,15293,0.084,551
2019-11-28T05:18:44,42.805,6.029,CST-1368DR,7272,10187,15295,0.083,551
2019-11-28T05:21:46,42.805,6.029,CST-1368DR,7272,10186,15293,0.084,551
2019-11-28T05:24:47,42.805,6.029,CST-1368DR,7271,10186,15296,0.083,551
2019-11-28T05:27:49,42.805,6.029,CST-1368DR,7272,10187,15295,0.083,551
2019-11-28T05:30:50,42.805,6.029,CST-1368DR,7272,10187,15295,0.083,551
2019-11-28T05:33:52,42.805,6.029,CST-1368DR,7271,10187,15297,0.083,551
2019-11-28T05:36:54,42.805,6.029,CST-1368DR,7271,10186,15296,0.083,551
2019-11-28T05:39:55,42.805,6.029,CST-1368DR,7271,10186,15296,0.083,551
2019-11-28T05:42:57,42.805,6.029,CST-1368DR,7271,10186,15295,0.083,551
2019-11-28T05:45:59,42.805,6.029,CST-1368DR,7271,10186,15296,0.083,551
2019-11-28T05:49:00,42.805,6.029,CST-1368DR,7271,10186,15296,0.083,551
2019-11-28T05:52:02,42.805,6.029,CST-1368DR,7271,10185,15295,0.083,551
2019-11-28T05:55:04,42.805,6.029,CST-1368DR,7271,10187,15297,0.083,551
2019-11-28T05:58:05,42.805,6.029,CST-1368DR,7271,10186,15296,0.083,551
2019-11-28T06:01:07,42.805,6.029,CST-1368DR,7271,10186,15296,0.083,551
2019-11-28T06:04:09,42.805,6.029,CST-1368DR,7271,10186,15296,0.083,551
2019-11-28T06:07:10,42.805,6.029,CST-1368DR,7271,10185,15293,0.084,551
2019-11-28T06:10:12,42.805,6.029,CST-1368DR,7271,10185,15295,0.083,551
2019-11-28T06:13:14,42.805,6.029,CST-1368DR,7271,10187,15297,0.083,551
2019-11-28T06:16:16,42.805,6.029,CST-1368DR,7271,10186,15296,0.083,551
2019-11-28T06:19:17,42.805,6.029,CST-1368DR,7271,10185,15295,0.083,551
2019-11-28T06:22:19,42.805,6.029,CST-1368DR,7271,10186,15296,0.083,551
2019-11-28T06:25:21,42.805,6.029,CST-1368DR,7271,10186,15296,0.083,551
2019-11-28T06:28:22,42.805,6.029,CST-1368DR,7271,10186,15295,0.083,550
2019-11-28T06:31:24,42.805,6.029,CST-1368DR,7271,10186,15295,0.083,551
2019-11-28T06:34:26,42.805,6.029,CST-1368DR,7271,10186,15295,0.083,551
2019-11-28T06:37:27,42.805,6.029,CST-1368DR,7271,10185,15294,0.083,551
2019-11-28T06:40:29,42.805,6.029,CST-1368DR,7271,10185,15295,0.083,551
2019-11-28T06:43:31,42.805,6.029,CST-1368DR,7271,10186,15295,0.083,551
2019-11-28T06:46:32,42.805,6.029,CST-1368DR,7271,10185,15293,0.084,551
2019-11-28T06:49:34,42.805,6.029,CST-1368DR,7271,10184,15293,0.084,551
2019-11-28T06:52:36,42.805,6.029,CST-1368DR,7271,10185,15294,0.083,551
2019-11-28T06:55:37,42.805,6.029,CST-1368DR,7271,10186,15295,0.083,551
2019-11-28T06:58:39,42.805,6.029,CST-1368DR,7271,10185,15293,0.084,550
2019-11-28T07:01:41,42.805,6.029,CST-1368DR,7271,10186,15295,0.083,551
2019-11-28T07:04:42,42.805,6.029,CST-1368DR,7271,10186,15296,0.083,551
2019-11-28T07:07:44,42.805,6.029,CST-1368DR,7271,10186,15295,0.083,551
2019-11-28T07:10:45,42.805,6.029,CST-1368DR,7271,10186,15295,0.083,551
2019-11-28T07:13:47,42.805,6.029,CST-1368DR,7271,10187,15297,0.083,551
2019-11-28T07:16:49,42.805,6.029,CST-1368DR,7271,10186,15295,0.083,551
2019-11-28T07:19:50,42.805,6.029,CST-1368DR,7271,10186,15295,0.083,551
2019-11-28T07:22:52,42.805,6.029,CST-1368DR,7271,10185,15293,0.084,551
2019-11-28T07:25:54,42.805,6.029,CST-1368DR,7271,10186,15295,0.083,551
2019-11-28T07:28:55,42.805,6.029,CST-1368DR,7271,10185,15293,0.084,551
2019-11-28T07:31:57,42.805,6.029,CST-1368DR,7271,10185,15295,0.083,551
2019-11-28T07:34:59,42.805,6.029,CST-1368DR,7271,10185,15293,0.084,551
2019-11-28T07:38:00,42.805,6.029,CST-1368DR,7271,10186,15295,0.083,551
2019-11-28T07:41:02,42.805,6.029,CST-1368DR,7271,10186,15295,0.083,551
2019-11-28T07:44:04,42.805,6.029,CST-1368DR,7271,10185,15293,0.084,551
2019-11-28T07:47:05,42.805,6.029,CST-1368DR,7271,10186,15295,0.083,550
2019-11-28T07:50:07,42.805,6.029,CST-1368DR,7271,10186,15295,0.083,551
2019-11-28T07:53:09,42.805,6.029,CST-1368DR,7271,10185,15295,0.083,551
2019-11-28T07:56:10,42.805,6.029,CST-1368DR,7271,10186,15295,0.083,551
2019-11-28T07:59:12,42.805,6.029,CST-1368DR,7271,10185,15295,0.083,551
2019-11-28T08:02:13,42.805,6.029,CST-1368DR,7271,10186,15295,0.083,551
2019-11-28T08:05:15,42.805,6.029,CST-1368DR,7271,10184,15293,0.084,551
2019-11-28T08:08:17,42.805,6.029,CST-1368DR,7271,10186,15295,0.083,551
2019-11-28T08:11:19,42.805,6.029,CST-1368DR,7271,10186,15295,0.083,551
2019-11-28T08:14:21,42.805,6.029,CST-1368DR,7271,10184,15292,0.084,551
2019-11-28T08:17:23,42.805,6.029,CST-1368DR,7271,10184,15293,0.084,551
2019-11-28T08:20:24,42.805,6.029,CST-1368DR,7271,10185,15295,0.083,551
2019-11-28T08:23:26,42.805,6.029,CST-1368DR,7271,10185,15295,0.083,551
2019-11-28T08:26:28,42.805,6.029,CST-1368DR,7270,10185,15296,0.083,551
2019-11-28T08:29:29,42.805,6.029,CST-1368DR,7270,10183,15294,0.083,551
2019-11-28T08:32:31,42.805,6.029,CST-1368DR,7270,10184,15295,0.083,551
2019-11-28T08:35:33,42.805,6.029,CST-1368DR,7271,10184,15293,0.084,551
2019-11-28T08:38:34,42.805,6.029,CST-1368DR,7270,10186,15298,0.082,551
2019-11-28T08:41:36,42.805,6.029,CST-1368DR,7270,10185,15295,0.083,551
2019-11-28T08:44:38,42.805,6.029,CST-1368DR,7270,10183,15293,0.084,551
2019-11-28T08:47:39,42.805,6.029,CST-1368DR,7270,10183,15293,0.084,551
2019-11-28T08:50:41,42.805,6.029,CST-1368DR,7270,10183,15293,0.084,551
2019-11-28T08:53:43,42.805,6.029,CST-1368DR,7270,10182,15292,0.084,551
2019-11-28T08:56:44,42.805,6.029,CST-1368DR,7270,10184,15295,0.083,551
2019-11-28T08:59:46,42.805,6.029,CST-1368DR,7270,10185,15297,0.083,551
2019-11-28T09:02:48,42.805,6.029,CST-1368DR,7270,10185,15295,0.083,550
2019-11-28T09:05:49,42.805,6.029,CST-1368DR,7270,10184,15294,0.083,551
2019-11-28T09:08:51,42.805,6.029,CST-1368DR,7270,10186,15297,0.083,551
2019-11-28T09:11:53,42.805,6.029,CST-1368DR,7270,10185,15295,0.083,551
2019-11-28T09:14:54,42.805,6.029,CST-1368DR,7270,10186,15297,0.083,551
2019-11-28T09:17:56,42.805,6.029,CST-1368DR,7270,10185,15295,0.083,551
2019-11-28T09:20:58,42.805,6.029,CST-1368DR,7270,10184,15294,0.083,551
2019-11-28T09:23:59,42.805,6.029,CST-1368DR,7270,10187,15298,0.082,551
2019-11-28T09:27:01,42.805,6.029,CST-1368DR,7270,10184,15294,0.083,551
2019-11-28T09:30:03,42.805,6.029,CST-1368DR,7270,10184,15295,0.083,551
2019-11-28T09:33:04,42.805,6.029,CST-1368DR,7270,10185,15297,0.083,551
2019-11-28T12:15:06,42.805,6.029,CST-1368DR,7266,10182,15300,0.082,553
2019-11-28T12:18:08,42.805,6.029,CST-1368DR,7269,10183,15295,0.083,551
2019-11-28T12:21:09,42.805,6.029,CST-1368DR,7271,10186,15296,0.083,551
2019-11-28T12:24:11,42.805,6.029,CST-1368DR,7272,10188,15296,0.083,551
2019-11-28T12:27:13,42.805,6.029,CST-1368DR,7272,10187,15295,0.083,551
2019-11-28T12:30:14,42.805,6.029,CST-1368DR,7272,10185,15292,0.084,551
2019-11-28T12:33:16,42.805,6.029,CST-1368DR,7272,10187,15296,0.083,551
2019-11-28T12:36:18,42.805,6.029,CST-1368DR,7272,10189,15299,0.082,551
2019-11-28T12:39:19,42.805,6.029,CST-1368DR,7272,10188,15297,0.083,551
2019-11-28T12:42:21,42.805,6.029,CST-1368DR,7272,10188,15296,0.083,551
2019-11-28T12:45:22,42.805,6.029,CST-1368DR,7272,10186,15294,0.083,551
2019-11-28T12:48:24,42.805,6.029,CST-1368DR,7272,10185,15293,0.084,551
2019-11-28T12:51:26,42.805,6.029,CST-1368DR,7272,10186,15294,0.083,551
2019-11-28T12:54:27,42.805,6.029,CST-1368DR,7272,10187,15294,0.083,551
2019-11-28T12:57:29,42.805,6.029,CST-1368DR,7272,10187,15295,0.083,551
2019-11-28T13:00:31,42.805,6.029,CST-1368DR,7272,10184,15291,0.084,551
2019-11-28T13:03:32,42.805,6.029,CST-1368DR,7272,10186,15294,0.083,551
2019-11-28T13:06:34,42.805,6.029,CST-1368DR,7272,10188,15296,0.083,551
2019-11-28T13:09:35,42.805,6.029,CST-1368DR,7272,10187,15296,0.083,551
2019-11-28T13:12:37,42.805,6.029,CST-1368DR,7272,10187,15295,0.083,551
2019-11-28T13:15:39,42.805,6.029,CST-1368DR,7272,10187,15295,0.083,551
2019-11-28T13:18:40,42.805,6.029,CST-1368DR,7272,10188,15297,0.083,551
2019-11-28T13:21:42,42.805,6.029,CST-1368DR,7272,10180,15285,0.086,551
2019-11-28T13:24:44,42.805,6.029,CST-1368DR,7272,10188,15297,0.083,551
2019-11-28T13:27:45,42.805,6.029,CST-1368DR,7272,10187,15295,0.083,551
2019-11-28T13:30:47,42.805,6.029,CST-1368DR,7272,10186,15293,0.084,551
2019-11-28T13:33:48,42.805,6.029,CST-1368DR,7271,10187,15297,0.083,551
2019-11-28T13:36:50,42.805,6.029,CST-1368DR,7272,10187,15295,0.083,550
2019-11-28T13:39:52,42.805,6.029,CST-1368DR,7271,10186,15296,0.083,551
2019-11-28T13:42:54,42.805,6.029,CST-1368DR,7271,10186,15296,0.083,551
2019-11-28T13:45:55,42.805,6.029,CST-1368DR,7271,10186,15295,0.083,551
2019-11-28T13:48:57,42.805,6.029,CST-1368DR,7271,10186,15295,0.083,551
2019-11-28T13:51:58,42.805,6.029,CST-1368DR,7271,10187,15297,0.083,551
2019-11-28T13:55:00,42.805,6.029,CST-1368DR,7271,10187,15298,0.082,551
2019-11-28T13:58:02,42.805,6.029,CST-1368DR,7271,10185,15295,0.083,551
2019-11-28T14:01:03,42.805,6.029,CST-1368DR,7271,10186,15295,0.083,551
2019-11-28T14:04:05,42.805,6.029,CST-1368DR,7271,10185,15294,0.083,551
2019-11-28T14:07:07,42.805,6.029,CST-1368DR,7271,10184,15292,0.084,550
2019-11-28T14:10:09,42.805,6.029,CST-1368DR,7271,10184,15292,0.084,551
2019-11-28T14:13:11,42.805,6.029,CST-1368DR,7271,10185,15295,0.083,551
2019-11-28T14:16:12,42.805,6.029,CST-1368DR,7271,10183,15291,0.084,551
2019-11-28T14:19:14,42.805,6.029,CST-1368DR,7271,10184,15292,0.084,550
2019-11-28T14:22:15,42.805,6.029,CST-1368DR,7271,10186,15296,0.083,551
2019-11-28T14:25:17,42.805,6.029,CST-1368DR,7271,10184,15293,0.084,551
2019-11-28T14:28:19,42.805,6.029,CST-1368DR,7271,10184,15292,0.084,551
2019-11-28T14:31:20,42.805,6.029,CST-1368DR,7271,10185,15293,0.084,551
2019-11-28T14:34:22,42.805,6.029,CST-1368DR,7271,10185,15295,0.083,550
2019-11-28T14:37:24,42.805,6.029,CST-1368DR,7271,10187,15296,0.083,551
2019-11-28T14:40:25,42.805,6.029,CST-1368DR,7271,10186,15296,0.083,551
2019-11-28T14:43:27,42.805,6.029,CST-1368DR,7271,10187,15296,0.083,551
2019-11-28T14:46:29,42.805,6.029,CST-1368DR,7271,10183,15291,0.084,551
2019-11-28T14:49:30,42.805,6.029,CST-1368DR,7270,10181,15291,0.084,551
2019-11-28T14:52:32,42.805,6.029,CST-1368DR,7270,10184,15295,0.083,551
2019-11-28T14:55:33,42.805,6.029,CST-1368DR,7270,10181,15290,0.084,551
2019-11-28T14:58:35,42.805,6.029,CST-1368DR,7270,10185,15297,0.083,550
2019-11-28T15:01:37,42.805,6.029,CST-1368DR,7270,10184,15294,0.083,551
2019-11-28T15:04:38,42.805,6.029,CST-1368DR,7270,10184,15295,0.083,551
2019-11-28T15:07:40,42.805,6.029,CST-1368DR,7270,10185,15297,0.083,551
2019-11-28T15:10:42,42.805,6.029,CST-1368DR,7270,10181,15291,0.084,551
2019-11-28T15:13:43,42.805,6.029,CST-1368DR,7270,10184,15294,0.083,551
2019-11-28T15:16:45,42.805,6.029,CST-1368DR,7270,10184,15294,0.083,551
2019-11-28T15:19:47,42.805,6.029,CST-1368DR,7270,10185,15297,0.083,551
2019-11-28T15:22:48,42.805,6.029,CST-1368DR,7270,10180,15289,0.085,551
2019-11-28T15:25:50,42.805,6.029,CST-1368DR,7270,10182,15292,0.084,550
2019-11-28T15:28:51,42.805,6.029,CST-1368DR,7270,10183,15293,0.084,550
2019-11-28T15:31:53,42.805,6.029,CST-1368DR,7270,10183,15293,0.084,551
2019-11-28T15:34:55,42.805,6.029,CST-1368DR,7270,10185,15295,0.083,551
2019-11-28T15:37:56,42.805,6.029,CST-1368DR,7270,10184,15295,0.083,551
2019-11-28T15:40:58,42.805,6.029,CST-1368DR,7270,10184,15295,0.083,551
2019-11-28T15:44:00,42.805,6.029,CST-1368DR,7270,10185,15297,0.083,551
2019-11-28T15:47:01,42.805,6.029,CST-1368DR,7270,10185,15295,0.083,551
2019-11-28T15:50:03,42.805,6.029,CST-1368DR,7270,10185,15296,0.083,551
2019-11-28T15:53:04,42.805,6.029,CST-1368DR,7270,10186,15297,0.083,551
2019-11-28T15:56:06,42.805,6.029,CST-1368DR,7270,10184,15294,0.083,551
2019-11-28T15:59:08,42.805,6.029,CST-1368DR,7270,10185,15296,0.083,551
2019-11-28T16:02:09,42.805,6.029,CST-1368DR,7270,10183,15293,0.084,550
2019-11-28T16:05:11,42.805,6.029,CST-1368DR,7270,10185,15297,0.083,551
2019-11-28T16:08:13,42.805,6.029,CST-1368DR,7270,10183,15293,0.084,551
2019-11-28T16:11:14,42.805,6.029,CST-1368DR,7270,10183,15292,0.084,551
2019-11-28T16:14:16,42.805,6.029,CST-1368DR,7270,10184,15295,0.083,551
2019-11-28T16:17:17,42.805,6.029,CST-1368DR,7270,10183,15293,0.084,551
2019-11-28T16:20:19,42.805,6.029,CST-1368DR,7270,10184,15294,0.083,551
2019-11-28T16:23:21,42.805,6.029,CST-1368DR,7270,10184,15294,0.083,551
2019-11-28T16:26:22,42.805,6.029,CST-1368DR,7270,10183,15293,0.084,551
2019-11-28T16:29:24,42.805,6.029,CST-1368DR,7270,10183,15294,0.083,550
2019-11-28T16:32:26,42.805,6.029,CST-1368DR,7270,10183,15292,0.084,550
2019-11-28T16:35:27,42.805,6.029,CST-1368DR,7270,10183,15293,0.084,551
2019-11-28T16:38:29,42.805,6.029,CST-1368DR,7270,10184,15294,0.083,551
2019-11-28T16:41:31,42.805,6.029,CST-1368DR,7270,10184,15294,0.083,551
2019-11-28T16:44:32,42.805,6.029,CST-1368DR,7270,10184,15294,0.083,551
2019-11-28T16:47:34,42.805,6.029,CST-1368DR,7270,10182,15292,0.084,551
2019-11-28T16:50:35,42.805,6.029,CST-1368DR,7270,10183,15294,0.083,551
2019-11-28T16:53:37,42.805,6.029,CST-1368DR,7270,10184,15294,0.083,550
2019-11-28T16:56:39,42.805,6.029,CST-1368DR,7270,10183,15294,0.083,551
2019-11-28T16:59:40,42.805,6.029,CST-1368DR,7270,10181,15290,0.084,551
2019-11-28T17:02:42,42.805,6.029,CST-1368DR,7270,10179,15288,0.085,551
2019-11-28T17:05:44,42.805,6.029,CST-1368DR,7270,10183,15294,0.083,551
2019-11-28T17:08:45,42.805,6.029,CST-1368DR,7270,10183,15294,0.083,551
2019-11-28T17:11:47,42.805,6.029,CST-1368DR,7269,10180,15291,0.084,551
2019-11-28T17:14:49,42.805,6.029,CST-1368DR,7269,10180,15290,0.084,551
2019-11-28T17:17:50,42.805,6.029,CST-1368DR,7269,10183,15295,0.083,551
2019-11-28T17:20:52,42.805,6.029,CST-1368DR,7269,10183,15294,0.083,551
2019-11-28T17:23:54,42.805,6.029,CST-1368DR,7269,10180,15290,0.084,551
2019-11-28T17:26:55,42.805,6.029,CST-1368DR,7269,10184,15296,0.083,551
2019-11-28T17:29:57,42.805,6.029,CST-1368DR,7269,10183,15295,0.083,551
2019-11-28T17:32:58,42.805,6.029,CST-1368DR,7269,10182,15294,0.083,551
2019-11-28T17:36:00,42.805,6.029,CST-1368DR,7269,10182,15294,0.083,551
2019-11-28T17:39:02,42.805,6.029,CST-1368DR,7269,10181,15292,0.084,551
2019-11-28T17:42:03,42.805,6.029,CST-1368DR,7269,10183,15294,0.083,551
2019-11-28T17:45:05,42.805,6.029,CST-1368DR,7269,10181,15292,0.084,551
2019-11-28T17:48:07,42.805,6.029,CST-1368DR,7269,10183,15294,0.083,551
2019-11-28T17:51:08,42.805,6.029,CST-1368DR,7269,10180,15291,0.084,551
2019-11-28T17:54:10,42.805,6.029,CST-1368DR,7269,10182,15294,0.083,551
2019-11-28T17:57:12,42.805,6.029,CST-1368DR,7269,10181,15292,0.084,551
2019-11-28T18:00:13,42.805,6.029,CST-1368DR,7269,10181,15292,0.084,551
2019-11-28T18:03:15,42.805,6.029,CST-1368DR,7269,10179,15289,0.085,551
2019-11-28T18:06:17,42.805,6.029,CST-1368DR,7269,10182,15294,0.083,551
2019-11-28T18:09:18,42.805,6.029,CST-1368DR,7269,10181,15292,0.084,551
2019-11-28T18:12:20,42.805,6.029,CST-1368DR,7269,10183,15295,0.083,551
2019-11-28T18:15:21,42.805,6.029,CST-1368DR,7269,10181,15291,0.084,551
2019-11-28T18:18:23,42.805,6.029,CST-1368DR,7269,10183,15294,0.083,551
2019-11-28T18:21:25,42.805,6.029,CST-1368DR,7269,10183,15294,0.083,551
2019-11-28T18:24:26,42.805,6.029,CST-1368DR,7269,10183,15294,0.083,551
2019-11-28T18:27:28,42.805,6.029,CST-1368DR,7269,10183,15294,0.083,550
2019-11-28T18:30:30,42.805,6.029,CST-1368DR,7269,10183,15295,0.083,551
2019-11-28T18:33:31,42.805,6.029,CST-1368DR,7269,10184,15296,0.083,551
2019-11-28T18:36:33,42.805,6.029,CST-1368DR,7269,10183,15294,0.083,550
2019-11-28T18:39:34,42.805,6.029,CST-1368DR,7269,10182,15293,0.084,551
2019-11-28T18:42:36,42.805,6.029,CST-1368DR,7269,10181,15291,0.084,551
2019-11-28T18:45:38,42.805,6.029,CST-1368DR,7269,10182,15293,0.084,551
2019-11-28T18:48:39,42.805,6.029,CST-1368DR,7269,10181,15292,0.084,551
2019-11-28T18:51:41,42.805,6.029,CST-1368DR,7269,10182,15294,0.083,551
2019-11-28T18:54:43,42.805,6.029,CST-1368DR,7269,10181,15291,0.084,551
2019-11-28T18:57:44,42.805,6.029,CST-1368DR,7269,10181,15292,0.084,550
2019-11-28T19:00:46,42.805,6.029,CST-1368DR,7269,10181,15292,0.084,551
2019-11-28T19:03:48,42.805,6.029,CST-1368DR,7269,10181,15292,0.084,551
2019-11-28T19:06:49,42.805,6.029,CST-1368DR,7269,10182,15293,0.084,551
2019-11-28T19:09:51,42.805,6.029,CST-1368DR,7269,10181,15292,0.084,551
2019-11-28T19:12:52,42.805,6.029,CST-1368DR,7269,10181,15292,0.084,551
2019-11-28T19:15:54,42.805,6.029,CST-1368DR,7269,10181,15292,0.084,551